Regional Weather Roundup
Issued by NWS

Home | Current Version | Previous Version | Graphics & Text | Print | Product List | Glossary On
Versions: 1 2 3 4 5 6 7 8 9 10 11 12 13 14 15 16 17 18 19 20 21 22 23 24 25 26 27 28 29 30 31 32 33 34 35 36 37 38 39 40 41 42 43 44 45 46 47 48 49 50
000
ASUS43 KFSD 291602
RWRSD

WEATHER ROUNDUP FOR SOUTH DAKOTA
NATIONAL WEATHER SERVICE SIOUX FALLS SD
1100 AM CDT TUE JUL 29 2014

NOTE: "FAIR" INDICATES FEW OR NO CLOUDS BELOW 12,000 FEET WITH NO
SIGNIFICANT WEATHER AND/OR OBSTRUCTIONS TO VISIBILITY.


SDZ001>005-009-010-012>017-291700-
NORTHWEST AND NORTH CENTRAL SOUTH DAKOTA

CITY           SKY/WX    TMP DP  RH WIND       PRES   REMARKS
BUFFALO          N/A     72  54  53 S9        30.19F
FAITH            N/A     74  52  46 E5        30.24F
MOBRIDGE         N/A     71  53  52 NW3       30.21F
$$

SDZ012>016-024>037-041>051-057-063-072>074-291700-
SOUTHWEST AND SOUTH CENTRAL SOUTH DAKOTA

CITY           SKY/WX    TMP DP  RH WIND       PRES   REMARKS
RAPID CTY ARPT CLOUDY    66  54  65 SE5       30.26S
PIERRE         MOSUNNY   75  53  46 N5        30.22S
CUSTER         CLOUDY    61  53  75 CALM      30.35R
ELLSWORTH AFB  CLOUDY    68  55  62 S7        30.26S
PHILIP         CLOUDY    72  52  49 CALM      30.23F
PINE RIDGE     LGT RAIN  65  59  81 CALM      30.26F
WINNER         FAIR      74  54  49 VRB3      30.24S
$$

SDZ004>011-016>023-039-040-291700-
NORTHEAST SOUTH DAKOTA

CITY           SKY/WX    TMP DP  RH WIND       PRES   REMARKS
ABERDEEN       SUNNY     71  52  50 VRB3      30.22F
WATERTOWN      SUNNY     67  54  63 NW6       30.22F
SISSETON         N/A     72  56  57 MISG      30.20S
$$

SDZ017-020-022-023-036>040-048>070-291700-
SOUTHEAST SOUTH DAKOTA

CITY           SKY/WX    TMP DP  RH WIND       PRES   REMARKS
SIOUX FALLS    MOSUNNY   71  53  52 N6        30.23S
HURON          SUNNY     71  52  50 SW3       30.22F
CHAMBERLAIN    MOSUNNY   71  54  55 SW3       30.24R
MITCHELL       MOSUNNY   72  55  55 N5        30.23F
YANKTON          N/A    N/A N/A N/A MISG        N/A
$$

ABBREVIATIONS USED IN REMARKS
   TC - TEMPERATURE IN CELSIUS
  WCI - WIND CHILL INDEX
   HX - HEAT INDEX
  VSB - VISIBILITY



USA.gov is the U.S. government's official web portal to all federal, state and local government web resources and services.